• In Romania
  • List of Countries
  • For 7 days
  • Water Temperature
  • Satellite Maps
  • Weather Map
  • Weather Widgets
  • user-avatar
    Login

    Hourly Weather Canillo

    Today, 23 June, Friday

    Time Temperature Precipitation Wind Pressure Humidity
    00:00 +13°C° 0 mm 1 mps 623 mmHg 83%
    01:00 +13°C° 0.2 mm 1 mps 623 mmHg 84%
    02:00 +12°C° 0.2 mm 1 mps 623 mmHg 85%
    03:00 +12°C° 0.2 mm 1 mps 623 mmHg 86%
    04:00 +14°C° 0.1 mm 1 mps 624 mmHg 83%
    05:00 +15°C° 0.1 mm 1 mps 624 mmHg 79%
    06:00 +16°C° 0.1 mm 1 mps 625 mmHg 75%
    07:00 +19°C° 0.1 mm 1 mps 626 mmHg 67%
    08:00 +21°C° 0.1 mm 1 mps 627 mmHg 60%
    09:00 +23°C° 0.1 mm 2 mps 628 mmHg 52%
    10:00 +24°C° 0.5 mm 2 mps 628 mmHg 50%
    11:00 +24°C° 0.5 mm 2 mps 628 mmHg 49%
    12:00 +25°C° 0.5 mm 2 mps 628 mmHg 48%
    13:00 +25°C° 1 mm 2 mps 628 mmHg 49%
    14:00 +25°C° 1 mm 2 mps 627 mmHg 51%
    15:00 +25°C° 1 mm 2 mps 627 mmHg 52%
    16:00 +24°C° 0.8 mm 2 mps 627 mmHg 58%
    17:00 +23°C° 0.8 mm 2 mps 626 mmHg 64%
    18:00 +21°C° 0.8 mm 2 mps 626 mmHg 70%
    19:00 +19°C° 0.4 mm 1 mps 625 mmHg 76%
    20:00 +16°C° 0.4 mm 1 mps 624 mmHg 83%
    21:00 +14°C° 0.4 mm 1 mps 624 mmHg 90%
    22:00 +13°C° 0.4 mm 1 mps 624 mmHg 90%
    23:00 +13°C° 0.4 mm 1 mps 624 mmHg 91%

    Tomorrow, 24 June, Saturday

    Time Temperature Precipitation Wind Pressure Humidity
    00:00 +13°C° 0.4 mm 1 mps 624 mmHg 92%
    01:00 +12°C° 0.1 mm 1 mps 623 mmHg 92%
    02:00 +12°C° 0.1 mm 1 mps 623 mmHg 92%
    03:00 +12°C° 0.1 mm 1 mps 623 mmHg 91%
    04:00 +13°C° 0 mm 1 mps 623 mmHg 88%
    05:00 +14°C° 0 mm 1 mps 624 mmHg 85%
    06:00 +15°C° 0 mm 1 mps 624 mmHg 82%
    07:00 +18°C° 0.1 mm 1 mps 625 mmHg 74%
    08:00 +19°C° 0.1 mm 2 mps 625 mmHg 66%
    09:00 +20°C° 0.1 mm 2 mps 626 mmHg 57%
    10:00 +21°C° 0.1 mm 2 mps 626 mmHg 54%
    11:00 +22°C° 0.1 mm 3 mps 626 mmHg 50%
    12:00 +24°C° 0.1 mm 3 mps 626 mmHg 46%
    13:00 +24°C° 0.3 mm 3 mps 626 mmHg 47%
    14:00 +24°C° 0.3 mm 3 mps 626 mmHg 48%
    15:00 +24°C° 0.3 mm 3 mps 625 mmHg 48%
    16:00 +23°C° 0.7 mm 2 mps 625 mmHg 55%
    17:00 +21°C° 0.7 mm 2 mps 625 mmHg 62%
    18:00 +20°C° 0.7 mm 2 mps 624 mmHg 69%
    19:00 +18°C° 0.2 mm 1 mps 624 mmHg 76%
    20:00 +15°C° 0.2 mm 1 mps 623 mmHg 83%
    21:00 +13°C° 0.2 mm 1 mps 623 mmHg 90%
    22:00 +13°C° 0.1 mm 1 mps 622 mmHg 90%
    23:00 +12°C° 0.1 mm 1 mps 622 mmHg 90%

    Day after tomorrow, 25 June, Sunday

    Time Temperature Precipitation Wind Pressure Humidity
    00:00 +12°C° 0.1 mm 1 mps 622 mmHg 90%
    01:00 +12°C° 0.1 mm 1 mps 622 mmHg 90%
    02:00 +11°C° 0.1 mm 1 mps 622 mmHg 89%
    03:00 +11°C° 0.1 mm 1 mps 621 mmHg 89%
    04:00 +12°C° 0.1 mm 1 mps 622 mmHg 85%
    05:00 +13°C° 0.1 mm 1 mps 622 mmHg 81%
    06:00 +14°C° 0.1 mm 1 mps 623 mmHg 78%
    07:00 +16°C° 0 mm 1 mps 624 mmHg 70%
    08:00 +18°C° 0 mm 2 mps 624 mmHg 62%
    09:00 +20°C° 0 mm 2 mps 625 mmHg 54%
    10:00 +21°C° 0.4 mm 2 mps 625 mmHg 53%
    11:00 +21°C° 0.4 mm 2 mps 625 mmHg 52%
    12:00 +23°C° 0.4 mm 2 mps 625 mmHg 51%
    13:00 +23°C° 1 mm 2 mps 625 mmHg 53%
    14:00 +23°C° 1 mm 2 mps 625 mmHg 54%
    15:00 +23°C° 1 mm 2 mps 624 mmHg 56%
    16:00 +21°C° 0.4 mm 2 mps 624 mmHg 61%
    17:00 +21°C° 0.4 mm 1 mps 623 mmHg 65%
    18:00 +20°C° 0.4 mm 1 mps 623 mmHg 70%
    19:00 +18°C° 0.2 mm 1 mps 622 mmHg 75%
    20:00 +16°C° 0.2 mm 1 mps 621 mmHg 79%
    21:00 +14°C° 0.2 mm 1 mps 621 mmHg 84%
    22:00 +14°C° 0.1 mm 1 mps 620 mmHg 86%
    23:00 +13°C° 0.1 mm 1 mps 620 mmHg 87%

    26 June, Monday

    Time Temperature Precipitation Wind Pressure Humidity
    00:00 +12°C° 0.1 mm 1 mps 619 mmHg 88%
    01:00 +12°C° 0.1 mm 1 mps 619 mmHg 88%
    02:00 +12°C° 0.1 mm 1 mps 619 mmHg 87%
    03:00 +12°C° 0.1 mm 2 mps 619 mmHg 87%
    04:00 +13°C° 0 mm 2 mps 619 mmHg 83%
    05:00 +14°C° 0 mm 2 mps 619 mmHg 79%
    06:00 +15°C° 0 mm 2 mps 619 mmHg 75%
    07:00 +16°C° 0 mm 2 mps 620 mmHg 69%
    08:00 +17°C° 0 mm 2 mps 620 mmHg 63%
    09:00 +18°C° 0 mm 2 mps 620 mmHg 57%
    10:00 +19°C° 0.5 mm 3 mps 620 mmHg 55%
    11:00 +20°C° 0.5 mm 3 mps 620 mmHg 54%
    12:00 +21°C° 0.5 mm 4 mps 620 mmHg 52%
    13:00 +20°C° 0.9 mm 3 mps 620 mmHg 54%
    14:00 +20°C° 0.9 mm 3 mps 620 mmHg 56%
    15:00 +20°C° 0.9 mm 2 mps 619 mmHg 58%
    16:00 +19°C° 0.4 mm 2 mps 619 mmHg 61%
    17:00 +18°C° 0.4 mm 2 mps 619 mmHg 64%
    18:00 +18°C° 0.4 mm 2 mps 618 mmHg 68%
    19:00 +16°C° 0.1 mm 2 mps 618 mmHg 74%
    20:00 +13°C° 0.1 mm 1 mps 617 mmHg 80%
    21:00 +11°C° 0.1 mm 1 mps 617 mmHg 86%
    22:00 +11°C° 0 mm 1 mps 617 mmHg 86%
    23:00 +11°C° 0 mm 1 mps 617 mmHg 85%

    27 June, Tuesday

    Time Temperature Precipitation Wind Pressure Humidity
    00:00 +11°C° 0 mm 1 mps 617 mmHg 84%
    01:00 +10°C° 0 mm 1 mps 616 mmHg 85%
    02:00 +10°C° 0 mm 1 mps 616 mmHg 86%
    03:00 +9°C° 0 mm 1 mps 616 mmHg 87%
    04:00 +11°C° 0 mm 1 mps 616 mmHg 84%
    05:00 +12°C° 0 mm 1 mps 617 mmHg 80%
    06:00 +14°C° 0 mm 1 mps 618 mmHg 77%
    07:00 +16°C° 0 mm 1 mps 619 mmHg 70%
    08:00 +17°C° 0 mm 2 mps 620 mmHg 63%
    09:00 +19°C° 0 mm 2 mps 621 mmHg 56%
    10:00 +20°C° 0.1 mm 3 mps 621 mmHg 52%
    11:00 +21°C° 0.1 mm 3 mps 621 mmHg 49%
    12:00 +22°C° 0.1 mm 4 mps 621 mmHg 46%
    13:00 +22°C° 0.4 mm 4 mps 620 mmHg 47%
    14:00 +22°C° 0.4 mm 4 mps 620 mmHg 47%
    15:00 +22°C° 0.4 mm 4 mps 620 mmHg 48%
    16:00 +21°C° 0.5 mm 3 mps 619 mmHg 54%
    17:00 +20°C° 0.5 mm 3 mps 619 mmHg 59%
    18:00 +19°C° 0.5 mm 2 mps 618 mmHg 64%
    19:00 +16°C° 0.6 mm 2 mps 617 mmHg 73%
    20:00 +14°C° 0.6 mm 1 mps 617 mmHg 81%
    21:00 +12°C° 0.6 mm 1 mps 616 mmHg 89%
    22:00 +12°C° 0.1 mm 1 mps 615 mmHg 88%
    23:00 +11°C° 0.1 mm 1 mps 615 mmHg 88%

    28 June, Wednesday

    Time Temperature Precipitation Wind Pressure Humidity
    00:00 +11°C° 0.1 mm 1 mps 615 mmHg 87%
    01:00 +11°C° 0 mm 1 mps 614 mmHg 86%
    02:00 +10°C° 0 mm 1 mps 613 mmHg 85%
    03:00 +10°C° 0 mm 1 mps 613 mmHg 85%
    04:00 +11°C° 0 mm 1 mps 613 mmHg 82%
    05:00 +12°C° 0 mm 2 mps 614 mmHg 79%
    06:00 +13°C° 0 mm 2 mps 614 mmHg 77%
    07:00 +15°C° 0.3 mm 2 mps 615 mmHg 69%
    08:00 +16°C° 0.3 mm 3 mps 615 mmHg 61%
    09:00 +18°C° 0.3 mm 4 mps 616 mmHg 53%
    10:00 +18°C° 0.6 mm 4 mps 615 mmHg 54%
    11:00 +17°C° 0.6 mm 5 mps 615 mmHg 54%
    12:00 +17°C° 0.6 mm 5 mps 615 mmHg 54%
    13:00 +16°C° 0.6 mm 5 mps 615 mmHg 56%
    14:00 +16°C° 0.6 mm 5 mps 615 mmHg 57%
    15:00 +15°C° 0.6 mm 5 mps 615 mmHg 59%
    16:00 +14°C° 0.4 mm 5 mps 615 mmHg 61%
    17:00 +13°C° 0.4 mm 4 mps 615 mmHg 64%
    18:00 +12°C° 0.4 mm 4 mps 614 mmHg 66%
    19:00 +10°C° 0.1 mm 3 mps 614 mmHg 72%
    20:00 +9°C° 0.1 mm 2 mps 614 mmHg 77%
    21:00 +8°C° 0.1 mm 1 mps 613 mmHg 82%
    22:00 +7°C° 0.1 mm 1 mps 613 mmHg 82%
    23:00 +7°C° 0.1 mm 1 mps 613 mmHg 82%
    Show more